This is the latest recevied weather packets stored in our database for station/object N7WSS. If no packets are shown the sender has not sent any weather packets the latest 10 day(s).
| Time | Temp. | Humidity | Pressure | Rain* | Wind** | Luminosity | Snow |
|---|---|---|---|---|---|---|---|
| 1787636639 | 27.78° C | 43% | 1014.5 hPa | 0 mm | - | - | - |
| 1787636338 | 27.78° C | 44% | 1014.9 hPa | 0 mm | - | - | - |
| 1787636034 | 27.78° C | 44% | 1014.8 hPa | 0 mm | - | - | - |
| 1787635729 | 27.78° C | 43% | 1014.8 hPa | 0 mm | - | - | - |
| 1787635425 | 28.33° C | 42% | 1014.9 hPa | 0 mm | - | - | - |
| 1787635125 | 28.33° C | 42% | 1014.9 hPa | 0 mm | - | - | - |
| 1787634820 | 28.89° C | 41% | 1014.8 hPa | 0 mm | - | - | - |
| 1787634516 | 28.89° C | 40% | 1014.9 hPa | 0 mm | - | - | - |
| 1787634211 | 28.33° C | 41% | 1014.8 hPa | 0 mm | - | - | - |
| 1787633906 | 28.33° C | 42% | 1014.8 hPa | 0 mm | - | - | - |
| 1787633603 | 28.33° C | 43% | 1015.1 hPa | 0 mm | - | - | - |
| 1787633299 | 28.89° C | 41% | 1014.7 hPa | 0 mm | - | - | - |
| 1787632994 | 28.89° C | 41% | 1014.8 hPa | 0 mm | - | - | - |
| 1787632691 | 29.44° C | 40% | 1014.8 hPa | 0 mm | - | - | - |
| 1787632386 | 29.44° C | 40% | 1015 hPa | 0 mm | - | - | - |
| 1787632085 | 29.44° C | 40% | 1014.8 hPa | 0 mm | - | - | - |
| 1787631781 | 29.44° C | 39% | 1014.8 hPa | 0 mm | - | - | - |
| 1787631477 | 29.44° C | 39% | 1014.4 hPa | 0 mm | - | - | - |
| 1787631172 | 30° C | 38% | 1014.8 hPa | 0 mm | - | - | - |
| 1787630872 | 30° C | 38% | 1014.7 hPa | 0 mm | - | - | - |
| 1787630568 | 29.44° C | 39% | 1014.5 hPa | 0 mm | - | - | - |
| 1787630268 | 30° C | 39% | 1014.5 hPa | 0 mm | - | - | - |
| 1787629964 | 30° C | 38% | 1014.5 hPa | 0 mm | - | - | - |
| 1787629664 | 30° C | 38% | 1014.5 hPa | 0 mm | - | - | - |
| 1787629360 | 30° C | 38% | 1014.3 hPa | 0 mm | - | - | - |
* Rain latest hour (hover to see other rain measurements)
** Current wind speed in m/s (hover to see current wind gust speed)